FW2571 Weather Reports


time (UTC)temp
C
wind
direction
speed
KPH
gust
KPH
rain 1hr
cm
rain 24hr
cm
rain mn
cm
humidity
%
barometer
mb
20260504034545 5 161 0.0 0.0 0.00 0.00 0.00 86 1017.7
20260504033051 5 161 0.0 0.0 0.00 0.00 0.00 85 1017.7
20260504031543 5 161 0.0 0.0 0.00 0.00 0.00 84 1017.7
20260504030041 5 161 0.0 0.0 0.00 0.00 0.00 82 1017.6
20260504024553 5 170 0.0 0.0 0.00 0.00 0.00 82 1017.6
20260504023037 6 170 0.0 0.0 0.00 0.00 0.00 80 1017.6
20260504021541 6 170 0.0 0.0 0.00 0.00 0.00 79 1017.7
20260504020034 6 170 0.0 0.0 0.00 0.00 0.00 78 1017.7
20260504014532 6 200 0.0 0.0 0.00 0.00 0.00 76 1017.6
20260504013036 7 200 0.0 0.0 0.00 0.00 0.00 73 1017.5
20260504011532 7 200 0.0 0.0 0.00 0.00 0.00 71 1017.3
20260504010032 8 200 0.0 0.0 0.00 0.00 0.00 69 1017.2
20260504004541 8 203 0.0 0.0 0.00 0.00 0.00 66 1017.1
20260504003031 9 217 0.0 0.0 0.00 0.00 0.00 62 1017.0
20260504001530 10 217 0.0 0.0 0.00 0.00 0.00 58 1016.8
20260504000030 11 236 0.0 0.0 0.00 0.00 0.00 55 1016.7
20260503234530 12 251 0.0 0.0 0.00 0.00 0.00 51 1016.5
20260503233031 13 252 0.0 0.0 0.00 0.00 0.00 45 1016.5
20260503231529 15 184 0.0 0.0 0.00 0.00 0.00 39 1016.3
20260503230028 15 260 0.0 1.6 0.00 0.00 0.00 37 1016.4
20260503224527 16 210 0.0 4.8 0.00 0.00 0.00 36 1016.4
20260503223026 17 205 0.0 4.8 0.00 0.00 0.00 36 1016.4
20260503221527 17 43 0.0 8.0 0.00 0.00 0.00 35 1016.4
20260503220025 17 203 0.0 11.3 0.00 0.00 0.00 35 1016.5
20260503214523 17 197 0.0 8.0 0.00 0.00 0.00 35 1016.3
20260503213026 17 281 3.2 20.9 0.00 0.00 0.00 35 1016.4
20260503211533 17 15 0.0 17.7 0.00 0.00 0.00 36 1016.3
20260503210019 17 216 1.6 20.9 0.00 0.00 0.00 35 1016.2
20260503204519 16 190 4.8 20.9 0.00 0.00 0.00 35 1016.3
20260503203020 17 315 0.0 12.9 0.00 0.00 0.00 35 1016.2
20260503201515 16 215 0.0 9.7 0.00 0.00 0.00 38 1016.2
20260503200014 16 131 0.0 12.9 0.00 0.00 0.00 35 1016.7
20260503194512 16 61 4.8 19.3 0.00 0.00 0.00 38 1016.7
20260503193028 16 170 11.3 24.1 0.00 0.00 0.00 38 1016.9
20260503191512 16 145 0.0 12.9 0.00 0.00 0.00 36 1017.3
20260503190018 16 212 0.0 12.9 0.00 0.00 0.00 39 1017.1
20260503184507 16 258 0.0 12.9 0.00 0.00 0.00 39 1017.2
20260503183004 16 264 0.0 12.9 0.00 0.00 0.00 39 1017.3
20260503181502 15 38 1.6 14.5 0.00 0.00 0.00 38 1017.5
20260503174618 15 8 1.6 24.1 0.00 0.00 0.00 43 1017.5
20260503173103 14 205 3.2 14.5 0.00 0.00 0.00 42 1017.7
20260503171556 14 340 4.8 27.4 0.00 0.00 0.00 40 1017.7
20260503100110 8 290 0.0 8.0 0.00 0.00 0.00 62 1015.8
20260503081547 10 155 0.0 12.9 0.00 0.00 0.00 67 1014.6
20260503071540 9 280 0.0 1.6 0.00 0.00 0.00 78 1014.1
20260503054528 7 233 0.0 0.0 0.00 0.00 0.00 89 1013.6
20260503053015 7 234 0.0 0.0 0.00 0.00 0.00 89 1013.4
20260503051513 7 234 0.0 0.0 0.00 0.00 0.00 90 1013.4
20260503050011 7 234 0.0 0.0 0.00 0.00 0.00 90 1013.4
20260503044513 7 208 0.0 0.0 0.00 0.00 0.00 91 1013.6
20260503043007 6 208 0.0 0.0 0.00 0.00 0.00 91 1013.6
20260503041507 6 208 0.0 0.0 0.00 0.00 0.00 90 1013.6
20260503040005 6 208 0.0 0.0 0.00 0.00 0.00 90 1013.7